Location: Thompson
(55.7500°N, 97.8670°W)
Time: 19:56:24
(UTC-06:00)

Cosmos 1666 - Visible Passes

Search period start: 27 February 2015 00:00
Search period end: 09 March 2015 01:00
Orbit: 510 x 539 km, 82.5° (Epoch: 26 February)

Date Brightness Start Highest point End Pass type
(mag) Time Alt. Az. Time Alt. Az. Time Alt. Az.
03 Mar 5.5 21:10:38 10° NNE 21:10:38 10° NNE 21:10:41 10° NNE visible
03 Mar 6.0 22:45:46 10° NNW 22:45:46 10° NNW 22:45:51 10° NNW visible
04 Mar 5.1 20:57:38 14° NNE 20:57:38 14° NNE 20:58:15 10° NNE visible
04 Mar 5.8 22:32:45 13° NNW 22:32:45 13° NNW 22:33:32 10° NNW visible
05 Mar 4.5 20:44:27 21° NNE 20:44:27 21° NNE 20:45:48 10° NNE visible
05 Mar 5.5 22:19:34 18° NW 22:19:34 18° NW 22:21:13 10° NNW visible
06 Mar 5.3 06:27:04 10° N 06:30:13 24° ENE 06:33:24 10° ESE visible
06 Mar 3.7 20:31:00 32° NE 20:31:00 32° NE 20:33:21 10° NNE visible
06 Mar 5.1 22:06:06 22° WNW 22:06:06 22° WNW 22:08:53 10° N visible
07 Mar 5.5 06:14:43 10° NNE 06:17:44 22° ENE 06:20:49 10° ESE visible
07 Mar 3.0 20:17:04 41° ESE 20:17:16 42° E 20:20:54 10° NNE visible
07 Mar 4.9 21:52:07 20° W 21:53:22 24° WNW 21:56:31 10° N visible
08 Mar 5.6 07:02:21 10° NNE 07:05:15 20° ENE 07:08:14 10° ESE visible
08 Mar 3.1 21:01:40 12° SSE 21:04:51 38° E 21:08:25 10° NNE visible
08 Mar 4.8 22:37:37 10° SW 22:40:53 26° WNW 22:44:08 10° N visible
